Regional Weather Roundup
Issued by NWS Sioux Falls, SD

Home | Current Version | Previous Version | Text Only | Print | Product List | Glossary On
Versions: 1 2 3 4 5 6 7 8 9 10 11 12 13 14 15 16 17 18 19 20 21 22 23 24 25 26 27 28 29 30 31 32 33 34 35 36 37 38 39 40 41 42 43 44 45 46 47 48 49 50
000
ASUS43 KFSD 220410
RWRFSD

WEATHER ROUNDUP FOR SE SOUTH DAKOTA/SW MINNESOTA/NW IOWA
NATIONAL WEATHER SERVICE SIOUX FALLS SD
1000 PM CST TUE NOV 21 2017

NOTE: "FAIR" INDICATES FEW OR NO CLOUDS BELOW 12,000 FEET WITH NO
SIGNIFICANT WEATHER AND OR OBSTRUCTIONS TO VISIBILITY.


SDZ038>040-050-052>070-220500-
SOUTHEAST SOUTH DAKOTA

CITY           SKY/WX    TMP DP  RH WIND       PRES   REMARKS
BROOKINGS      CLOUDY    15   7  70 W3        30.34R
CHAMBERLAIN    CLOUDY    14  10  85 CALM      30.35F
HURON          CLOUDY     9   5  84 NW5       30.38R WCI   1
MADISON        FAIR      14   7  73 W6        30.33S WCI   5
MITCHELL       CLOUDY    15   8  73 W6        30.38F WCI   6
SIOUX FALLS    CLOUDY    13   6  74 CALM      30.35F
WINNER         FAIR      15   8  73 S3        30.33F
YANKTON        CLOUDY    15   9  76 NW5       30.38F WCI   8
$$

MNZ071-072-080-081-089-090-097-098-220500-
SOUTHWEST MINNESOTA

CITY           SKY/WX    TMP DP  RH WIND       PRES   REMARKS
FAIRMONT       PTCLDY    20  11  68 NW13      30.33S WCI   7
JACKSON        CLOUDY    19   9  63 NW9       30.32S WCI   9
LUVERNE        CLOUDY    12   5  73 CALM      30.35F
MARSHALL       CLOUDY    15   8  73 NW7       30.35S WCI   5
MONTEVIDEO     CLOUDY    18   9  68 N5        30.35R WCI  11
PIPESTONE      CLOUDY    10   5  79 W3        30.31F
REDWOOD FALLS  CLOUDY    19   9  65 NW7       30.34S WCI  10
WINDOM           N/A     18   3  53 NW8       30.32S WCI   7
WORTHINGTON    CLOUDY    15   8  73 NW7       30.33S WCI   5
$$

IAZ001>003-012>014-020>022-031-032-NEZ013-014-SDZ071-220500-
NORTHWEST IOWA

CITY           SKY/WX    TMP DP  RH WIND       PRES   REMARKS
CHEROKEE       CLOUDY    16  10  74 CALM      30.37R
DENISON        CLOUDY    19  10  68 CALM      30.38S
ESTHERVILLE    CLOUDY    18  10  71 NW10      30.33S WCI   6
LE MARS        CLOUDY    19   9  63 CALM      30.37F
ORANGE CITY    CLOUDY    18  10  73 CALM      30.35S
SHELDON        CLOUDY    16   7  67 NW3       30.33F
SIOUX CITY     CLOUDY    19   9  65 W7        30.40R WCI  10
SPENCER        CLOUDY    15   8  73 NW5       30.35R WCI   8
STORM LAKE     CLOUDY    18   9  68 NW8       30.34S WCI   7
$$

ABBREVIATIONS USED IN REMARKS
   TC - TEMPERATURE IN CELSIUS
  WCI - WIND CHILL INDEX
   HX - HEAT INDEX
  VSB - VISIBILITY





USA.gov is the U.S. government's official web portal to all federal, state and local government web resources and services.